Aspen, CO

7:19 PM MDT on June 24, 2017 (GMT -0600)
Aspen-Pitkin County / Sardy Field

Weather History for KASE - April, 2014

Change the Weather History Date:

Wednesday, April 23, 2014

  Actual Average Record
Temperature  
Mean Temperature 44 °F 42 °F  
Max Temperature 56 °F 55 °F 75 °F (2012)
Min Temperature 32 °F 29 °F 19 °F (1985)
Degree Days  
Heating Degree Days 21 23  
Month to date heating degree days 562 600  
Since 1 July heating degree days 7688 7975  
Cooling Degree Days 0 0  
Month to date cooling degree days 0 0  
Year to date cooling degree days 0 0  
Moisture  
Dew Point 21 °F    
Average Humidity 40    
Maximum Humidity 65    
Minimum Humidity 15    
Precipitation  
Precipitation T in 0.07 in 0.53 in (2011)
Month to date precipitation 0.77 1.35  
Year to date precipitation 4.46 4.91  
Sea Level Pressure  
Sea Level Pressure 29.60 in    
Wind  
Wind Speed 9 mph (NNW)    
Max Wind Speed 23 mph    
Max Gust Speed 36 mph    
Visibility 10 miles    
Events Rain    
T = Trace of Precipitation, MM = Missing Value Source: NWS Daily Summary

Daily Weather History Graph

Daily Weather History Graph

Search for Another Location

Airport or City:

Trip Planner

Search our weather history database for the weather conditions in past years. The results will help you decide how hot, cold, wet, or windy it might be!

Date:

Astronomy

Apr. 23, 2014 Rise Set
Actual Time 6:19 AM MDT 7:52 PM MDT
Civil Twilight 5:51 AM MDT 8:21 PM MDT
Nautical Twilight 5:16 AM MDT 8:55 PM MDT
Astronomical Twilight 4:40 AM MDT 9:31 PM MDT
Moon 2:50 AM MDT (4/23) 2:06 PM MDT (4/23)
Length of Visible Light 14h 30m
Length of Day
13h 33m
Waning Crescent, 34% of the Moon is Illuminated
Apr 23
Waning Crescent
Apr 29
New
May 6
First Quarter
May 14
Full
May 21
Last Quarter

Hourly Weather History & Observations

Time (MDT) Temp. Windchill Dew Point Humidity Pressure Visibility Wind Dir Wind Speed Gust Speed Precip Events Conditions
12:53 AM 54.0 °F - 24.1 °F 31% 29.47 in 10.0 mi South 13.8 mph 24.2 mph N/A   Clear
2:53 AM 54.0 °F - 19.9 °F 26% 29.44 in 10.0 mi SSW 8.1 mph - N/A   Mostly Cloudy
3:53 AM 53.1 °F - 19.9 °F 27% 29.44 in 10.0 mi Variable 4.6 mph - N/A   Overcast
4:53 AM 46.9 °F - 30.0 °F 52% 29.50 in 10.0 mi Calm Calm - 0.00 in Rain Light Rain
5:53 AM 46.0 °F 41.4 °F 30.9 °F 56% 29.49 in 10.0 mi SE 9.2 mph - 0.00 in   Overcast
6:53 AM 44.1 °F 37.1 °F 32.0 °F 63% 29.56 in 10.0 mi SE 15.0 mph - N/A   Mostly Cloudy
7:53 AM 44.1 °F - 34.0 °F 68% 29.56 in 10.0 mi Calm Calm - N/A   Mostly Cloudy
8:53 AM 46.9 °F - 28.0 °F 48% 29.56 in 10.0 mi North 9.2 mph - N/A   Mostly Cloudy
9:53 AM 48.0 °F - 26.1 °F 42% 29.55 in 10.0 mi NW 15.0 mph - N/A   Mostly Cloudy
10:53 AM 48.0 °F - 24.1 °F 39% 29.57 in 10.0 mi NNW 11.5 mph 17.3 mph N/A   Mostly Cloudy
11:53 AM 48.9 °F - 21.9 °F 35% 29.57 in 10.0 mi North 11.5 mph - N/A   Scattered Clouds
12:53 PM 50.0 °F - 19.9 °F 31% 29.55 in 10.0 mi NNE 12.7 mph 16.1 mph N/A   Mostly Cloudy
1:53 PM 53.1 °F - 7.0 °F 16% 29.53 in 10.0 mi North - - N/A   Mostly Cloudy
2:53 PM 51.1 °F - 19.0 °F 28% 29.54 in 10.0 mi North 11.5 mph 21.9 mph N/A   Scattered Clouds
3:53 PM 48.0 °F - 18.0 °F 30% 29.57 in 10.0 mi NNW 18.4 mph 26.5 mph N/A   Overcast
4:53 PM 46.0 °F 40.6 °F 19.9 °F 35% 29.64 in 10.0 mi WSW 11.5 mph 18.4 mph N/A   Mostly Cloudy
5:53 PM 44.1 °F 38.1 °F 21.0 °F 40% 29.68 in 10.0 mi North 11.5 mph 21.9 mph N/A   Mostly Cloudy
6:53 PM 44.1 °F 39.5 °F 19.0 °F 37% 29.70 in 10.0 mi North 8.1 mph 19.6 mph N/A   Partly Cloudy
7:53 PM 42.1 °F 35.2 °F 19.0 °F 40% 29.73 in 10.0 mi NNW 12.7 mph - N/A   Mostly Cloudy
8:53 PM 41.0 °F 35.8 °F 19.0 °F 41% 29.77 in 10.0 mi WNW 8.1 mph 18.4 mph N/A   Overcast
9:53 PM 39.9 °F 33.9 °F 14.0 °F 35% 29.80 in 10.0 mi NNW 9.2 mph - N/A   Overcast
10:53 PM 37.9 °F 30.9 °F 14.0 °F 38% 29.83 in 10.0 mi NW 10.4 mph - N/A   Overcast
11:53 PM 36.0 °F 30.3 °F 12.0 °F 37% 29.85 in 10.0 mi NW 6.9 mph - N/A   Scattered Clouds